Location: Bothwell
(42.3833°S, 147.0000°E)
Time: 03:57:56
(UTC+10:00)

XW-2C - Pass Details

Date: 23 April 2024
Orbit: 436 x 449 km, 97.5° (Epoch: 22 May)

Event Time Altitude Azimuth Distance (km) Brightness Sun altitude
Rises 05:54:35 0° 24° (NNE) 2,433 ? -11.3°
Reaches altitude 10° 05:56:37 10° 29° (NNE) 1,574 ? -11.0°
Maximum altitude 05:59:54 51° 106° (ESE) 578 ? -10.4°
Drops below altitude 10° 06:03:16 10° 182° (S) 1,613 ? -9.7°
Sets 06:05:22 0° 187° (S) 2,500 ? -9.4°
